Regional Weather Roundup
Issued by NWS

Home | Current Version | Previous Version | Graphics & Text | Print | Product List | Glossary Off
Versions: 1 2 3 4 5 6 7 8 9 10 11 12 13 14 15 16 17 18 19 20 21 22 23 24 25 26 27 28 29 30 31 32 33 34 35 36 37 38 39 40 41 42 43 44 45 46 47 48 49 50

000
ASUS43 KDMX 010507
RWRIA

WEATHER ROUNDUP FOR IOWA
NATIONAL WEATHER SERVICE DES MOINES IA
1200 AM CDT SAT AUG 01 2015

NOTE: "FAIR" INDICATES FEW OR NO CLOUDS BELOW 12,000 FEET WITH NO
SIGNIFICANT WEATHER AND/OR OBSTRUCTIONS TO VISIBILITY.

* - THESE STATIONS ARE NOT NWS STATIONS...THUS NOT UNDER NWS
QUALITY CONTROL.  THEY ALSO DO NOT REPORT WEATHER SUCH
AS PRECIPITATION OR FOG.

IAZ001>003-012>014-020>022-031>034-043>046-010600-
   NORTHWEST IOWA

CITY           SKY/WX    TMP DP  RH WIND       PRES   REMARKS
CARROLL *      CLOUDY    68  64  88 CALM      30.09S
CHEROKEE *     CLEAR     64  63  94 CALM      30.09S
DENISON *      CLOUDY    72  68  88 NE5       30.08R
LE MARS *      CLEAR     66  66 100 SW3       30.10R
ORANGE CITY *  CLEAR     68  63  83 CALM      30.09S
SHELDON *      CLEAR     61  59  94 S8        30.07S
SIOUX CITY     CLEAR     73  66  78 E5        30.08S
SPENCER        CLEAR     64  59  83 SW6       30.07F
STORM LAKE *   CLEAR     66  63  88 S6        30.10S
$$

IAZ055>058-069>071-079>083-090>094-010600-
   SOUTHWEST IOWA

CITY           SKY/WX    TMP DP  RH WIND       PRES   REMARKS
ATLANTIC *     CLOUDY    72  70  94 CALM      30.09R
AUDUBON *      PTCLDY    70  66  88 CALM      30.11R
CLARINDA *     PTCLDY    70  68  94 SE3       30.10R
COUNCIL BLFS * CLEAR     72  66  83 SW3       30.08S
CRESTON *      MOCLDY    70  64  83 S3        30.12R
HARLAN  *      PTCLDY    72  72 100 CALM      30.12R
LAMONI         LGT RAIN  70  66  87 CALM      30.09F
RED OAK *      CLEAR     68  66  94 CALM      30.08R
SHENANDOAH *   CLEAR     72  68  88 CALM      30.07F
$$

IAZ047>049-059>061-072>074-084-010600-
   CENTRAL IOWA

CITY           SKY/WX    TMP DP  RH WIND       PRES   REMARKS
AMES           CLEAR     63  61  93 W3        30.07S
ANKENY *       CLEAR     66  66 100 CALM      30.08R
CHARITON *     MOCLDY    73  68  83 CALM      30.09R
DES MOINES     PTCLDY    76  63  64 S5        30.07R
GRINNELL*      CLEAR     66  63  88 CALM      30.08S
KNOXVILLE *    CLEAR     73  66  78 CALM      30.07R
MARSHALLTOWN   CLEAR     65  61  87 CALM      30.07R
PELLA *        CLOUDY    69  69  99 CALM      30.09R
PERRY *          N/A     70  68  94 CALM      30.08S
$$

IAZ004>006-015-016-023>025-035-036-010600-
   NORTH CENTRAL IOWA

CITY           SKY/WX    TMP DP  RH WIND       PRES   REMARKS
ALGONA *       CLEAR     64  59  82 S8        30.07S
CLARION *      CLEAR     61  59  94 CALM      30.07S
ESTHERVILLE    CLEAR     63  58  83 SW5       30.06F
FORT DODGE *   CLEAR     63  59  88 CALM      30.09R
MASON CITY     CLEAR     62  59  90 CALM      30.07F
FOREST CITY *  CLEAR     59  59 100 CALM      30.06S
IOWA FALLS *     N/A     63  59  88 CALM      30.08S
$$

IAZ007>011-017>019-026>030-037>042-050>054-066-010600-
   NORTHEAST IOWA

CITY           SKY/WX    TMP DP  RH WIND       PRES   REMARKS
CEDAR RAPIDS   CLEAR     63  62  97 W5        30.05S
CHARLES CITY * CLEAR     61  61 100 W3        30.06S
CLINTON *      CLEAR     63  57  82 NW6       30.07R
DECORAH *      CLEAR     64  59  82 CALM      30.04S
DUBUQUE        CLEAR     66  57  72 NW6       30.05R
MONTICELLO *   CLEAR     61  59  94 CALM      30.05R
OELWEIN *        N/A     63  59  88 W5        30.07R
WATERLOO       CLEAR     63  60  90 CALM      30.05R
$$

IAZ064-065-067-068-078-010600-
   EAST CENTRAL IOWA

CITY           SKY/WX    TMP DP  RH WIND       PRES   REMARKS
DAVENPORT      CLEAR     64  59  83 NW6       30.05R
IOWA CITY      CLEAR     67  61  81 W5        30.06S
MT. PLEASANT * CLEAR     66  61  82 SW3       30.07R
MUSCATINE *    CLEAR     66  59  77 CALM      30.05S
QUAD CITIES    CLEAR     65  59  81 SW3       30.04R
$$

IAZ062-063-075>077-085>089-095>099-010600-
   SOUTHEAST IOWA

CITY           SKY/WX    TMP DP  RH WIND       PRES   REMARKS
BURLINGTON     CLEAR     68  61  78 NW3       30.06R
FAIRFIELD *    CLEAR     66  64  94 CALM      30.07R
FORT MADISON * MOCLDY    70  64  83 CALM      30.07S
KEOKUK *       MOCLDY    72  68  88 CALM      30.05S
OSKALOOSA *    MOCLDY    66  64  94 CALM      30.08R
CENTERVILLE *  CLEAR     72  68  88 NE3       30.10R
OTTUMWA        PTCLDY    68  66  93 CALM      30.06R
WASHINGTON *   CLEAR     64  61  88 N3        30.07S
$$

ABBREVIATIONS USED IN REMARKS
   TC - TEMPERATURES IN CELSIUS
  WCI - WIND CHILL INDEX
   HX - HEAT INDEX
  VSB - VISIBILITY
$$




USA.gov is the U.S. government's official web portal to all federal, state and local government web resources and services.